SCP
0 0 0 -0 -0 -0 -0 -0 -0 0 -0 -0 -0 -0 -0 -0 -0 -0 -0 -0 -0 -0 -0 -0 -0 -0 -0 0 0 0 0 0 0 0 0 0 0 -0 -0 -0 -0 -0 0
-0 -0 -0 -0 -0 -0 -0 -0 -0 -0 -0 -0 -0 -0 -0 -0 -0 -0 -0 -0 -0 -0 -0 -0 -0 -0 -0 -0 -0 0 0 0 0 0 0 0 0 0 -0 0 0 0 0
-0 -0 -0 -0 -0 -0 -0 -0 -0 -0 -0 -0 -0 -0 -0 -0 -0 -0 -0 -0 -0 -0 -0 -0 -0 -0 -0 -0 -0 0 0 0 0 0 0 0 0 0 -0 0 0 0 0
-0 0 0 -0 -0 -0 -0 -0 -0 -0 -0 -0 -0 -0 -0 -0 -0 -0 -0 -0 -0 -0 0 -0 -0 -0 -0 -0 -0 0 0 0 0 0 0 0 0 0 0 0 0 0 0
0 0 0 0 -0 -0 -0 -0 -0 -0 -0 -0 -0 -0 -0 -0 -0 -0 -0 -0 0 0 0 0 0 0 0 0 0 0 0 0 0 0 0 0 0 0 0 0 0 0 0
0 0 0 0 0 0 -0 -0 -0 -0 -0 -0 -0 -0 0 0 0 0 0 0 0 0 0 0 0 0 0 0 0 0 0 0 0 0 0 0 0 0 0 0 0 0 0
0 0 0 0 0 0 0 0 -0 -0 0 0 0 0 0 0 0 0 0 0 0 0 0 0 0 0 0 0 0 0 0 0 0 0 0 0 0 0 0 0 0 0 0
0 0 0 0 0 0 0 0 0 0 0 0 0 0 0 0 0 0 0 0 0 0 0 0 0 0 0 0 0 0 0 0 0 0 0 0 0 0 0 0 0 0 0
0 0 0 0 0 0 0 0 0 0 0 0 0 0 0 0 0 0 0 0 0 0 0 0 0 0 0 0 0 0 0 0 0 0 0 0 0 0 0 0 0 0 0
0 0 0 0 0 0 0 0 0 0 0 0 0 0 0 0 0 0 0 0 0 0 0 0 0 0 0 0 0 0 0 0 0 0 0 0 0 0 0 0 0 0 0
0 0 0 0 0 0 0 0 0 0 0 0 0 0 0 0 0 0 0 0 0 0 0 0 0 0 0 0 0 0 0 0 0 0 0 0 0 0 0 0 0 0 0
0 0 0 0 0 0 0 0 0 0 0 0 0 0 0 0 0 0 0 0 0 0 0 0 0 0 0 0 0 0 0 0 0 0 0 0 0 0 0 0 0 0 0
0 0 0 0 0 0 0 0 0 0 0 0 0 0 0 0 0 0 0 0 0 0 0 0 0 0 0 0 0 0 0 0 0 0 0 0 0 0 0 0 0 0 0
0 0 0 0 0 0 0 0 0 0 0 0 0 0 0 0 0 0 0 0 0 0 0 0 0 0 0 0 0 0 0 0 0 0 0 0 0 0 0 0 0 0 0
0 0 0 0 0 0 0 0 0 0 0 0 0 0 0 0 0 0 0 0 0 0 0 0 0 0 0 0 0 0 0 0 0 0 0 0 0 0 0 0 0 0 0
0 0 0 0 0 0 0 0 0 0 0 0 0 0 0 0 0 0 0 0 0 0 0 0 0 0 0 0 0 0 0 0 0 0 0 0 0 0 0 0 0 0 0
0 0 0 0 0 0 0 0 0 0 0 0 0 0 0 0 0 0 0 0 0 0 0 0 0 0 0 0 0 0 0 0 0 0 0 0 0 0 0 0 0 0 0
0 0 0 0 0 0 0 0 0 0 0 0 0 0 0 0 0 0 0 0 0 0 0 0 0 0 0 -0 0 0 0 0 0 0 0 0 0 0 0 0 0 0 0
0 0 0 0 0 0 0 0 0 0 0 0 0 0 0 0 0 0 0 0 0 0 0 0 0 0 0 0 0 0 0 0 0 0 0 0 0 0 0 0 0 0 0
0 0 0 0 0 0 0 0 0 0 0 0 0 0 0 0 0 0 0 0 0 0 0 0 0 0 -0 -0 0 0 0 0 0 0 0 0 0 0 0 0 0 0 0
0 0 0 0 0 0 0 0 0 0 0 0 0 0 0 0 0 0 0 0 0 0 0 0 0 0 0 0 -0 -0 0 0 -0 0 0 0 0 0 0 0 0 0 0
0 0 0 0 0 0 0 0 0 0 0 0 0 0 0 0 0 0 0 0 0 0 0 0 0 0 0 0 -0 -0 -0 0 0 0 0 0 0 0 0 0 0 0 0
0 0 0 0 0 0 0 0 0 0 0 0 0 0 0 0 0 0 0 0 0 0 0 0 0 0 0 0 0 0 -0 0 -0 0 0 0 0 0 0 0 0 0 0
0 0 0 0 0 0 0 0 0 0 0 0 0 0 0 0 0 0 0 0 0 0 0 0 0 0 0 0 0 0 0 0 -0 -0 0 0 0 0 0 0 0 0 0
0 0 0 0 0 0 0 0 0 0 0 0 0 0 0 0 0 0 0 0 0 0 0 0 0 0 0 0 0 0 0 0 0 0 0 0 0 0 0 0 0 0 0
0 0 0 0 0 0 0 0 0 0 0 0 0 0 0 0 0 0 0 0 0 0 0 0 0 0 0 0 0 0 0 0 0 0 0 0 0 0 0 0 0 0 0
Wind_Speed_500mb
29 26 24 23 20 18 15 12 8 5 6 6 7 3 4 6 8 6 7 9 10 9 8 10 10 12 13 12 11 12 12 13 14 15 14 11 10 10 11 11 12 15 14
25 24 25 25 23 18 22 18 14 13 10 6 6 5 7 9 14 13 11 10 9 7 6 6 8 13 15 16 15 14 15 15 13 12 13 10 8 7 9 13 12 11 12
30 24 21 20 19 14 16 16 15 14 10 5 4 7 8 10 13 14 13 11 12 12 12 12 13 15 15 17 18 17 14 14 14 13 11 8 5 10 8 12 13 10 10
32 26 23 19 17 15 14 13 13 11 11 11 13 14 13 14 16 17 17 18 18 18 18 20 22 21 18 19 20 22 22 19 17 14 10 8 5 9 7 10 14 14 12
30 27 24 22 19 16 14 13 12 10 11 14 14 13 14 13 13 14 14 15 16 17 19 22 22 23 23 22 22 21 19 19 18 17 14 10 7 7 19 23 23 19 18
33 29 27 24 20 19 18 16 14 14 14 10 10 9 9 10 12 13 13 13 14 15 19 20 21 22 22 21 22 23 24 22 19 17 16 14 17 15 16 20 20 23 20
37 34 31 27 24 21 20 18 15 13 11 9 9 8 7 7 7 6 6 7 8 9 12 13 15 16 17 18 20 21 20 21 22 20 16 16 16 18 25 26 25 24 22
37 36 34 31 28 24 19 15 12 11 10 10 8 7 5 2 1 2 4 6 8 11 13 14 14 14 14 14 15 15 17 20 21 19 18 17 20 18 26 30 26 24 24
40 38 37 34 29 25 23 19 15 13 12 10 9 7 5 4 4 2 1 4 7 9 11 13 15 17 18 18 16 15 16 18 18 18 18 21 22 20 22 28 27 26 28
43 43 40 36 34 31 28 23 20 18 15 13 11 9 6 6 4 2 3 9 13 18 21 24 26 26 26 25 21 19 16 16 15 15 17 28 28 29 30 34 36 33 29
49 49 47 44 40 35 33 30 26 22 20 17 15 13 12 10 6 7 11 15 18 21 24 27 28 28 25 24 23 21 20 19 17 16 15 22 29 35 38 39 43 42 40
52 54 53 52 47 42 38 34 30 26 23 20 18 17 15 12 11 11 12 14 15 17 21 23 26 28 29 29 25 24 22 19 18 17 16 18 19 23 27 29 36 42 44
51 55 56 55 52 48 44 40 37 33 30 27 24 22 19 18 17 15 15 16 18 20 22 25 26 28 29 26 24 24 23 22 21 19 19 22 23 24 26 27 26 28 32
60 58 58 58 58 55 50 46 42 38 35 32 30 29 27 25 21 19 20 19 19 20 23 25 29 30 29 28 28 25 25 25 25 24 23 23 25 27 29 30 29 30 31
66 63 64 62 64 61 57 53 49 45 42 39 38 36 33 30 27 25 23 21 22 24 25 27 30 31 30 26 25 27 26 26 27 27 27 28 29 30 31 32 33 33 34
69 68 66 66 66 65 63 58 54 50 48 47 44 41 37 34 30 26 26 24 24 25 27 29 30 32 31 29 27 26 27 26 27 29 30 31 32 34 35 35 36 37 36
73 69 69 69 65 66 64 62 59 55 54 52 47 45 43 39 34 29 28 26 26 26 27 29 32 35 36 36 35 33 32 30 29 32 33 33 33 36 38 39 32 30 34
74 76 71 72 69 66 66 67 63 60 57 56 53 50 47 43 38 34 34 31 29 27 29 32 34 36 37 38 38 35 34 35 36 32 30 27 23 25 28 30 27 29 34
76 76 79 79 74 70 66 69 67 64 62 61 59 57 53 48 42 39 37 34 30 28 30 32 32 36 39 40 42 42 41 40 34 37 26 19 20 16 18 27 33 31 29
78 77 81 81 75 72 68 71 71 70 68 68 65 62 58 53 47 45 41 38 33 31 33 34 34 34 39 47 48 47 44 35 40 22 19 40 40 29 29 33 39 39 35
83 83 88 86 81 77 78 81 82 83 77 75 69 65 61 55 50 47 44 40 34 32 36 37 36 37 36 40 49 49 41 37 24 22 44 54 40 43 44 43 37 44 54
90 90 88 86 81 81 80 81 83 81 76 71 67 67 63 59 55 53 49 42 37 37 40 40 39 38 37 38 40 44 34 37 15 54 36 50 40 36 36 51 64 66 67
97 95 90 85 80 83 81 81 83 75 71 75 79 77 72 66 62 59 53 46 41 41 41 40 40 37 35 36 33 24 14 13 68 56 61 32 55 42 62 66 72 73 71
98 94 88 80 78 82 83 83 86 88 87 90 87 81 74 71 67 62 57 50 45 44 43 42 40 37 35 36 36 29 29 34 21 40 48 77 68 76 83 85 81 76 79
95 93 85 76 79 84 84 83 86 91 89 86 81 77 74 71 68 65 60 55 51 46 43 42 40 38 40 38 36 36 38 38 44 48 70 65 86 93 96 86 95 90 84
91 88 82 81 85 86 85 83 85 88 90 85 83 81 78 75 72 68 64 60 54 48 44 42 41 41 42 42 40 39 40 41 50 51 75 95 100 105 98 106 92 87 87
Wind_Direction_500mb
192 191 190 186 162 158 169 187 181 165 171 204 234 247 266 309 314 329 341 344 352 347 344 359 350 340 328 333 335 336 341 346 347 347 349 355 2 353 343 345 355 355 3
191 189 188 187 187 159 165 165 177 177 197 214 246 269 295 323 336 345 346 345 336 329 350 353 311 312 323 329 332 325 323 326 332 347 359 359 28 2 355 337 341 340 345
190 189 194 185 185 183 180 184 192 195 213 236 280 286 302 316 318 321 321 318 306 304 303 300 298 292 303 308 307 305 306 310 318 328 343 345 345 334 357 313 324 322 312
188 187 188 187 187 185 185 193 202 208 224 248 262 282 292 288 286 289 293 290 287 289 291 294 296 304 306 302 303 313 323 324 321 316 314 303 15 319 293 302 312 310 291
189 185 186 186 189 192 195 201 212 214 228 241 259 269 279 283 284 291 293 292 296 299 294 295 297 295 291 286 287 288 291 299 307 310 311 296 298 285 287 284 284 296 296
192 194 196 198 195 187 183 188 187 191 205 209 229 244 256 271 282 286 288 294 299 299 301 302 304 301 298 292 285 281 279 278 281 290 294 294 279 275 284 290 296 285 283
196 200 202 202 198 190 182 180 180 187 199 210 228 239 250 253 273 297 327 336 342 338 332 332 332 326 319 308 299 290 283 274 269 271 282 280 267 266 278 284 288 291 278
206 206 208 207 203 199 202 200 198 203 208 215 214 213 211 179 124 34 2 2 359 355 354 351 341 333 328 326 322 310 291 277 269 262 256 256 260 269 271 278 280 279 279
211 213 211 210 210 209 210 209 210 203 201 199 198 193 176 166 162 158 34 20 6 2 353 346 338 332 327 327 328 318 310 299 283 264 249 245 238 240 258 274 283 283 277
219 218 220 216 216 218 217 215 208 203 201 202 204 206 208 191 183 170 1 353 353 347 342 337 334 332 330 329 324 325 325 314 300 276 241 237 237 240 245 263 274 275 280
222 224 221 222 220 219 218 214 212 208 204 208 217 216 216 226 253 307 326 335 335 336 332 327 324 322 320 320 322 324 324 322 322 317 296 275 270 265 265 262 267 270 270
226 227 225 224 223 222 223 220 217 215 218 221 224 229 232 243 260 278 294 305 311 314 316 321 322 321 320 317 317 318 317 316 315 316 314 304 294 288 285 281 274 273 271
234 231 230 227 227 225 225 222 219 219 220 222 227 234 234 242 247 261 276 290 300 308 314 321 327 324 316 310 307 303 305 306 302 301 300 297 295 295 293 291 288 285 282
236 236 235 229 228 226 224 224 223 223 224 226 229 233 239 244 253 261 272 281 287 292 303 317 324 324 318 313 308 304 301 302 303 303 300 299 295 290 288 290 292 288 285
237 237 236 232 230 227 227 223 224 224 227 228 229 233 235 240 246 257 268 277 285 293 304 312 317 316 315 312 306 302 302 303 303 301 298 291 285 287 287 284 282 282 279
240 238 236 234 231 228 226 224 224 224 227 228 229 232 236 241 249 257 267 274 277 285 299 310 314 319 320 316 313 311 314 312 308 303 297 293 288 282 278 277 275 273 272
243 239 236 235 232 230 227 226 225 225 227 230 229 231 235 239 244 253 260 265 273 285 295 304 315 322 323 321 321 323 325 322 316 310 308 300 294 292 289 284 287 289 290
242 238 235 236 234 232 228 226 225 226 229 232 233 235 237 240 244 249 254 259 267 279 289 299 315 324 324 320 320 325 326 327 327 322 322 320 309 292 289 288 293 299 302
245 237 233 234 233 233 229 227 226 228 231 233 234 236 235 237 240 242 247 254 261 271 282 295 310 318 321 320 322 327 332 334 332 328 331 354 348 340 314 297 293 294 302
243 240 235 234 230 231 230 227 227 228 230 232 233 234 234 236 236 239 244 249 255 265 277 289 301 312 321 323 326 326 330 329 332 339 345 334 322 310 303 301 307 305 302
236 233 232 230 227 227 226 223 224 227 227 232 234 235 236 237 237 241 243 247 254 265 275 283 293 305 316 319 321 319 330 333 338 338 324 324 322 307 303 310 304 304 300
234 231 229 231 230 229 230 229 228 232 231 237 239 238 238 237 238 239 242 246 253 263 271 280 290 300 312 322 326 332 332 333 318 321 324 314 309 305 303 305 302 303 305
226 227 229 230 231 231 230 228 228 228 232 233 234 235 236 235 237 238 241 245 253 262 270 278 285 296 307 311 316 322 330 308 318 320 320 315 322 301 299 299 297 299 304
228 226 229 231 233 230 229 227 228 229 229 234 236 238 238 237 237 239 241 245 251 260 268 275 283 291 296 300 303 306 304 298 305 309 307 312 312 306 305 306 306 308 310
224 224 228 231 230 229 229 229 230 233 235 241 240 240 237 237 236 237 241 244 249 257 266 273 280 287 291 293 296 300 303 302 298 291 300 308 309 309 308 307 310 311 314
220 223 226 228 227 227 228 230 231 233 235 236 237 236 236 235 235 237 240 242 247 254 262 270 276 281 284 289 293 295 296 298 303 304 303 308 308 312 308 307 307 311 314
Wind_Speed_850mb
29 26 24 23 20 18 15 12 8 5 6 6 7 3 4 6 8 6 7 9 10 9 8 10 10 12 13 12 11 12 12 13 14 15 14 11 10 10 11 11 12 15 14
25 24 25 25 23 18 22 18 14 13 10 6 6 5 7 9 14 13 11 10 9 7 6 6 8 13 15 16 15 14 15 15 13 12 13 10 8 7 9 13 12 11 12
30 24 21 20 19 14 16 16 15 14 10 5 4 7 8 10 13 14 13 11 12 12 12 12 13 15 15 17 18 17 14 14 14 13 11 8 5 10 8 12 13 10 10
32 26 23 19 17 15 14 13 13 11 11 11 13 14 13 14 16 17 17 18 18 18 18 20 22 21 18 19 20 22 22 19 17 14 10 8 5 9 7 10 14 14 12
30 27 24 22 19 16 14 13 12 10 11 14 14 13 14 13 13 14 14 15 16 17 19 22 22 23 23 22 22 21 19 19 18 17 14 10 7 7 19 23 23 19 18
33 29 27 24 20 19 18 16 14 14 14 10 10 9 9 10 12 13 13 13 14 15 19 20 21 22 22 21 22 23 24 22 19 17 16 14 17 15 16 20 20 23 20
37 34 31 27 24 21 20 18 15 13 11 9 9 8 7 7 7 6 6 7 8 9 12 13 15 16 17 18 20 21 20 21 22 20 16 16 16 18 25 26 25 24 22
37 36 34 31 28 24 19 15 12 11 10 10 8 7 5 2 1 2 4 6 8 11 13 14 14 14 14 14 15 15 17 20 21 19 18 17 20 18 26 30 26 24 24
40 38 37 34 29 25 23 19 15 13 12 10 9 7 5 4 4 2 1 4 7 9 11 13 15 17 18 18 16 15 16 18 18 18 18 21 22 20 22 28 27 26 28
43 43 40 36 34 31 28 23 20 18 15 13 11 9 6 6 4 2 3 9 13 18 21 24 26 26 26 25 21 19 16 16 15 15 17 28 28 29 30 34 36 33 29
49 49 47 44 40 35 33 30 26 22 20 17 15 13 12 10 6 7 11 15 18 21 24 27 28 28 25 24 23 21 20 19 17 16 15 22 29 35 38 39 43 42 40
52 54 53 52 47 42 38 34 30 26 23 20 18 17 15 12 11 11 12 14 15 17 21 23 26 28 29 29 25 24 22 19 18 17 16 18 19 23 27 29 36 42 44
51 55 56 55 52 48 44 40 37 33 30 27 24 22 19 18 17 15 15 16 18 20 22 25 26 28 29 26 24 24 23 22 21 19 19 22 23 24 26 27 26 28 32
60 58 58 58 58 55 50 46 42 38 35 32 30 29 27 25 21 19 20 19 19 20 23 25 29 30 29 28 28 25 25 25 25 24 23 23 25 27 29 30 29 30 31
66 63 64 62 64 61 57 53 49 45 42 39 38 36 33 30 27 25 23 21 22 24 25 27 30 31 30 26 25 27 26 26 27 27 27 28 29 30 31 32 33 33 34
69 68 66 66 66 65 63 58 54 50 48 47 44 41 37 34 30 26 26 24 24 25 27 29 30 32 31 29 27 26 27 26 27 29 30 31 32 34 35 35 36 37 36
73 69 69 69 65 66 64 62 59 55 54 52 47 45 43 39 34 29 28 26 26 26 27 29 32 35 36 36 35 33 32 30 29 32 33 33 33 36 38 39 32 30 34
74 76 71 72 69 66 66 67 63 60 57 56 53 50 47 43 38 34 34 31 29 27 29 32 34 36 37 38 38 35 34 35 36 32 30 27 23 25 28 30 27 29 34
76 76 79 79 74 70 66 69 67 64 62 61 59 57 53 48 42 39 37 34 30 28 30 32 32 36 39 40 42 42 41 40 34 37 26 19 20 16 18 27 33 31 29
78 77 81 81 75 72 68 71 71 70 68 68 65 62 58 53 47 45 41 38 33 31 33 34 34 34 39 47 48 47 44 35 40 22 19 40 40 29 29 33 39 39 35
83 83 88 86 81 77 78 81 82 83 77 75 69 65 61 55 50 47 44 40 34 32 36 37 36 37 36 40 49 49 41 37 24 22 44 54 40 43 44 43 37 44 54
90 90 88 86 81 81 80 81 83 81 76 71 67 67 63 59 55 53 49 42 37 37 40 40 39 38 37 38 40 44 34 37 15 54 36 50 40 36 36 51 64 66 67
97 95 90 85 80 83 81 81 83 75 71 75 79 77 72 66 62 59 53 46 41 41 41 40 40 37 35 36 33 24 14 13 68 56 61 32 55 42 62 66 72 73 71
98 94 88 80 78 82 83 83 86 88 87 90 87 81 74 71 67 62 57 50 45 44 43 42 40 37 35 36 36 29 29 34 21 40 48 77 68 76 83 85 81 76 79
95 93 85 76 79 84 84 83 86 91 89 86 81 77 74 71 68 65 60 55 51 46 43 42 40 38 40 38 36 36 38 38 44 48 70 65 86 93 96 86 95 90 84
91 88 82 81 85 86 85 83 85 88 90 85 83 81 78 75 72 68 64 60 54 48 44 42 41 41 42 42 40 39 40 41 50 51 75 95 100 105 98 106 92 87 87
Wind_Direction_850mb
192 191 190 186 162 158 169 187 181 165 171 204 234 247 266 309 314 329 341 344 352 347 344 359 350 340 328 333 335 336 341 346 347 347 349 355 2 353 343 345 355 355 3
191 189 188 187 187 159 165 165 177 177 197 214 246 269 295 323 336 345 346 345 336 329 350 353 311 312 323 329 332 325 323 326 332 347 359 359 28 2 355 337 341 340 345
190 189 194 185 185 183 180 184 192 195 213 236 280 286 302 316 318 321 321 318 306 304 303 300 298 292 303 308 307 305 306 310 318 328 343 345 345 334 357 313 324 322 312
188 187 188 187 187 185 185 193 202 208 224 248 262 282 292 288 286 289 293 290 287 289 291 294 296 304 306 302 303 313 323 324 321 316 314 303 15 319 293 302 312 310 291
189 185 186 186 189 192 195 201 212 214 228 241 259 269 279 283 284 291 293 292 296 299 294 295 297 295 291 286 287 288 291 299 307 310 311 296 298 285 287 284 284 296 296
192 194 196 198 195 187 183 188 187 191 205 209 229 244 256 271 282 286 288 294 299 299 301 302 304 301 298 292 285 281 279 278 281 290 294 294 279 275 284 290 296 285 283
196 200 202 202 198 190 182 180 180 187 199 210 228 239 250 253 273 297 327 336 342 338 332 332 332 326 319 308 299 290 283 274 269 271 282 280 267 266 278 284 288 291 278
206 206 208 207 203 199 202 200 198 203 208 215 214 213 211 179 124 34 2 2 359 355 354 351 341 333 328 326 322 310 291 277 269 262 256 256 260 269 271 278 280 279 279
211 213 211 210 210 209 210 209 210 203 201 199 198 193 176 166 162 158 34 20 6 2 353 346 338 332 327 327 328 318 310 299 283 264 249 245 238 240 258 274 283 283 277
219 218 220 216 216 218 217 215 208 203 201 202 204 206 208 191 183 170 1 353 353 347 342 337 334 332 330 329 324 325 325 314 300 276 241 237 237 240 245 263 274 275 280
222 224 221 222 220 219 218 214 212 208 204 208 217 216 216 226 253 307 326 335 335 336 332 327 324 322 320 320 322 324 324 322 322 317 296 275 270 265 265 262 267 270 270
226 227 225 224 223 222 223 220 217 215 218 221 224 229 232 243 260 278 294 305 311 314 316 321 322 321 320 317 317 318 317 316 315 316 314 304 294 288 285 281 274 273 271
234 231 230 227 227 225 225 222 219 219 220 222 227 234 234 242 247 261 276 290 300 308 314 321 327 324 316 310 307 303 305 306 302 301 300 297 295 295 293 291 288 285 282
236 236 235 229 228 226 224 224 223 223 224 226 229 233 239 244 253 261 272 281 287 292 303 317 324 324 318 313 308 304 301 302 303 303 300 299 295 290 288 290 292 288 285
237 237 236 232 230 227 227 223 224 224 227 228 229 233 235 240 246 257 268 277 285 293 304 312 317 316 315 312 306 302 302 303 303 301 298 291 285 287 287 284 282 282 279
240 238 236 234 231 228 226 224 224 224 227 228 229 232 236 241 249 257 267 274 277 285 299 310 314 319 320 316 313 311 314 312 308 303 297 293 288 282 278 277 275 273 272
243 239 236 235 232 230 227 226 225 225 227 230 229 231 235 239 244 253 260 265 273 285 295 304 315 322 323 321 321 323 325 322 316 310 308 300 294 292 289 284 287 289 290
242 238 235 236 234 232 228 226 225 226 229 232 233 235 237 240 244 249 254 259 267 279 289 299 315 324 324 320 320 325 326 327 327 322 322 320 309 292 289 288 293 299 302
245 237 233 234 233 233 229 227 226 228 231 233 234 236 235 237 240 242 247 254 261 271 282 295 310 318 321 320 322 327 332 334 332 328 331 354 348 340 314 297 293 294 302
243 240 235 234 230 231 230 227 227 228 230 232 233 234 234 236 236 239 244 249 255 265 277 289 301 312 321 323 326 326 330 329 332 339 345 334 322 310 303 301 307 305 302
236 233 232 230 227 227 226 223 224 227 227 232 234 235 236 237 237 241 243 247 254 265 275 283 293 305 316 319 321 319 330 333 338 338 324 324 322 307 303 310 304 304 300
234 231 229 231 230 229 230 229 228 232 231 237 239 238 238 237 238 239 242 246 253 263 271 280 290 300 312 322 326 332 332 333 318 321 324 314 309 305 303 305 302 303 305
226 227 229 230 231 231 230 228 228 228 232 233 234 235 236 235 237 238 241 245 253 262 270 278 285 296 307 311 316 322 330 308 318 320 320 315 322 301 299 299 297 299 304
228 226 229 231 233 230 229 227 228 229 229 234 236 238 238 237 237 239 241 245 251 260 268 275 283 291 296 300 303 306 304 298 305 309 307 312 312 306 305 306 306 308 310
224 224 228 231 230 229 229 229 230 233 235 241 240 240 237 237 236 237 241 244 249 257 266 273 280 287 291 293 296 300 303 302 298 291 300 308 309 309 308 307 310 311 314
220 223 226 228 227 227 228 230 231 233 235 236 237 236 236 235 235 237 240 242 247 254 262 270 276 281 284 289 293 295 296 298 303 304 303 308 308 312 308 307 307 311 314